Prestonsburg, KY

6:03 PM EDT on May 26, 2017 (GMT -0400)
Prestonsburg

Weather History for KK22 - November, 2012

Change the Weather History Date:

Monday, November 12, 2012

  Actual Average (KJKL) Record (KJKL)
Temperature  
Mean Temperature 52 °F -  
Max Temperature 69 °F 53 °F 73 °F (1985)
Min Temperature 35 °F 38 °F 19 °F (1995)
Degree Days  
Heating Degree Days 12    
Growing Degree Days 2 (Base 50)    
Moisture  
Dew Point 45 °F    
Average Humidity 68    
Maximum Humidity 95    
Minimum Humidity 48    
Precipitation  
Precipitation 0.00 in - - ()
Sea Level Pressure  
Sea Level Pressure 30.21 in    
Wind  
Wind Speed 9 mph ()    
Max Wind Speed 17 mph    
Max Gust Speed 24 mph    
Visibility 9.5 miles    
Events Rain    
Averages and records for this station are not official NWS values.
T = Trace of Precipitation, MM = Missing Value Source: Averaged Metar Reports

Daily Weather History Graph

Daily Weather History Graph

Search for Another Location

Airport or City:

Trip Planner

Search our weather history database for the weather conditions in past years. The results will help you decide how hot, cold, wet, or windy it might be!

Date:

Astronomy

Nov. 12, 2012 Rise Set
Actual Time 7:08 AM EST 5:21 PM EST
Civil Twilight 6:40 AM EST 5:48 PM EST
Nautical Twilight 6:08 AM EST 6:20 PM EST
Astronomical Twilight 5:37 AM EST 6:51 PM EST
Moon 5:33 AM EST (11/12) 4:24 PM EST (11/12)
Length of Visible Light 11h 08m
Length of Day
10h 13m
Waning Crescent, 2% of the Moon is Illuminated
Nov 12
Waning Crescent
Nov 13
New
Nov 20
First Quarter
Nov 28
Full
Dec 6
Last Quarter

Hourly Weather History & Observations

Time (EST) Temp. Windchill Dew Point Humidity Pressure Visibility Wind Dir Wind Speed Gust Speed Precip Events Conditions
12:15 AM 63.9 °F - 45.7 °F 52% 30.21 in 10.0 mi South 11.5 mph - N/A   Clear
12:35 AM 64.4 °F - 46.0 °F 51% 30.20 in 10.0 mi South 15.0 mph 20.7 mph N/A   Clear
12:55 AM 64.2 °F - 46.4 °F 52% 30.20 in 10.0 mi South 15.0 mph 21.9 mph N/A   Clear
1:15 AM 64.2 °F - 46.4 °F 52% 30.19 in 10.0 mi South 15.0 mph 20.7 mph N/A   Clear
1:55 AM 64.2 °F - 46.8 °F 53% 30.18 in 10.0 mi South 13.8 mph 20.7 mph N/A   Clear
2:15 AM 63.9 °F - 46.9 °F 54% 30.18 in 10.0 mi South 12.7 mph 17.3 mph N/A   Clear
2:55 AM 64.4 °F - 47.3 °F 54% 30.17 in 10.0 mi South 12.7 mph 17.3 mph N/A   Clear
3:15 AM 64.0 °F - 47.3 °F 54% 30.17 in 10.0 mi South 10.4 mph 18.4 mph N/A   Clear
3:35 AM 63.5 °F - 47.3 °F 56% 30.17 in 10.0 mi South 6.9 mph - N/A   Clear
3:55 AM 63.0 °F - 47.5 °F 57% 30.17 in 10.0 mi South 8.1 mph - N/A   Clear
4:15 AM 62.8 °F - 47.8 °F 58% 30.16 in 10.0 mi South 8.1 mph - N/A   Clear
4:35 AM 63.7 °F - 48.2 °F 57% 30.16 in 10.0 mi South 8.1 mph - N/A   Clear
4:55 AM 63.9 °F - 48.6 °F 57% 30.15 in 10.0 mi South 10.4 mph - N/A   Clear
5:15 AM 63.9 °F - 48.7 °F 58% 30.15 in 10.0 mi South 11.5 mph - N/A   Clear
5:35 AM 64.0 °F - 49.1 °F 58% 30.14 in 10.0 mi South 10.4 mph - N/A   Clear
5:55 AM 64.4 °F - 49.1 °F 58% 30.14 in 10.0 mi South 9.2 mph 16.1 mph N/A   Clear
6:15 AM 64.4 °F - 49.1 °F 58% 30.14 in 10.0 mi South 9.2 mph - N/A   Clear
6:35 AM 63.9 °F - 49.1 °F 59% 30.14 in 10.0 mi South 9.2 mph - N/A   Clear
6:55 AM 64.0 °F - 49.1 °F 58% 30.15 in 10.0 mi South 10.4 mph - N/A   Clear
7:55 AM 64.8 °F - 49.3 °F 57% 30.18 in 10.0 mi South 10.4 mph - N/A   Scattered Clouds
8:15 AM 64.9 °F - 49.3 °F 57% 30.18 in 10.0 mi South 8.1 mph - N/A   Mostly Cloudy
8:35 AM 65.1 °F - 49.1 °F 56% 30.19 in 10.0 mi South 8.1 mph - N/A   Scattered Clouds
8:55 AM 65.3 °F - 49.1 °F 56% 30.18 in 10.0 mi South 10.4 mph - N/A   Clear
9:15 AM 66.4 °F - 49.1 °F 54% 30.18 in 10.0 mi South 9.2 mph 16.1 mph N/A   Clear
9:35 AM 66.4 °F - 49.1 °F 54% 30.18 in 10.0 mi South 10.4 mph 16.1 mph N/A   Mostly Cloudy
9:55 AM 66.7 °F - 48.7 °F 52% 30.17 in 10.0 mi South 11.5 mph 17.3 mph N/A   Overcast
10:15 AM 66.7 °F - 48.7 °F 52% 30.16 in 10.0 mi South 11.5 mph 16.1 mph N/A   Scattered Clouds
10:55 AM 67.1 °F - 48.6 °F 51% 30.12 in 10.0 mi SSE 15.0 mph 21.9 mph N/A   Clear
11:15 AM 67.5 °F - 48.6 °F 51% 30.11 in 10.0 mi South 13.8 mph 20.7 mph N/A   Clear
11:35 AM 67.8 °F - 48.6 °F 50% 30.11 in 10.0 mi South 12.7 mph 21.9 mph N/A   Clear
11:55 AM 68.2 °F - 49.1 °F 50% 30.10 in 10.0 mi South 12.7 mph 18.4 mph N/A   Scattered Clouds
12:15 PM 68.9 °F - 48.7 °F 49% 30.09 in 10.0 mi South 15.0 mph 21.9 mph N/A   Scattered Clouds
12:35 PM 68.9 °F - 48.9 °F 49% 30.08 in 10.0 mi South 17.3 mph 24.2 mph N/A   Mostly Cloudy
12:55 PM 68.7 °F - 49.5 °F 50% 30.06 in 10.0 mi South 16.1 mph - N/A   Light Drizzle
1:15 PM 69.8 °F - 49.1 °F 48% 30.05 in 10.0 mi SSW 11.5 mph - N/A   Light Drizzle
1:35 PM 69.6 °F - 48.9 °F 48% 30.06 in 10.0 mi SSW 9.2 mph 24.2 mph N/A   Overcast
1:55 PM 69.3 °F - 48.6 °F 48% 30.06 in 10.0 mi SW 10.4 mph 16.1 mph N/A   Overcast
2:15 PM 65.8 °F - 51.3 °F 59% 30.06 in 10.0 mi WNW 6.9 mph - N/A Rain Light Rain
2:35 PM 60.3 °F - 54.7 °F 82% 30.09 in 7.0 mi West 11.5 mph 18.4 mph N/A Rain Light Rain
2:55 PM 55.0 °F - 52.5 °F 91% 30.12 in 5.0 mi NW 16.1 mph 21.9 mph N/A   Drizzle
3:35 PM 51.4 °F - 49.3 °F 92% 30.17 in 5.0 mi WNW 13.8 mph 21.9 mph N/A Rain Light Rain
3:55 PM 50.9 °F - 49.1 °F 94% 30.19 in 5.0 mi NW 6.9 mph 18.4 mph N/A Rain Heavy Rain
4:15 PM 50.0 °F - 48.6 °F 95% 30.21 in 3.0 mi WNW 8.1 mph 16.1 mph N/A Rain Rain
4:35 PM 49.3 °F - 46.9 °F 92% 30.22 in 7.0 mi WNW 11.5 mph 19.6 mph N/A Rain Light Rain
4:55 PM 48.6 °F - 47.3 °F 95% 30.24 in 3.0 mi WNW 8.1 mph - N/A Rain Rain
5:15 PM 47.5 °F - 45.1 °F 92% 30.26 in 10.0 mi WNW 9.2 mph 16.1 mph N/A Rain Light Rain
5:35 PM 46.8 °F - 44.8 °F 93% 30.27 in 10.0 mi WNW 5.8 mph - N/A Rain Rain
5:55 PM 45.1 °F 40.3 °F 42.6 °F 91% 30.29 in 10.0 mi NW 9.2 mph 20.7 mph N/A   Light Drizzle
6:15 PM 43.5 °F 38.3 °F 40.1 °F 88% 30.30 in 10.0 mi NW 9.2 mph 17.3 mph N/A   Drizzle
6:35 PM 42.8 °F 39.3 °F 39.0 °F 86% 30.31 in 10.0 mi WNW 5.8 mph 16.1 mph N/A   Light Drizzle
6:55 PM 42.1 °F 38.4 °F 35.6 °F 78% 30.32 in 10.0 mi WNW 5.8 mph - N/A   Light Drizzle
7:15 PM 41.4 °F 38.4 °F 36.3 °F 82% 30.32 in 10.0 mi WNW 4.6 mph - N/A Rain Light Rain
7:35 PM 41.2 °F - 35.8 °F 81% 30.31 in 10.0 mi Calm Calm - N/A   Drizzle
7:55 PM 40.1 °F - 37.0 °F 89% 30.32 in 10.0 mi Calm Calm - N/A   Overcast
8:15 PM 40.1 °F - 37.2 °F 89% 30.32 in 10.0 mi Calm Calm - N/A   Overcast
8:35 PM 39.2 °F - 36.5 °F 90% 30.34 in 10.0 mi Calm Calm - N/A   Overcast
8:55 PM 39.7 °F 37.6 °F 36.5 °F 88% 30.36 in 10.0 mi West 3.5 mph - N/A   Overcast
9:15 PM 39.7 °F 36.5 °F 36.9 °F 89% 30.36 in 10.0 mi West 4.6 mph - N/A   Overcast
9:35 PM 39.7 °F 37.6 °F 36.9 °F 89% 30.37 in 10.0 mi WNW 3.5 mph - N/A   Overcast
9:55 PM 39.7 °F 36.5 °F 36.5 °F 88% 30.38 in 10.0 mi WNW 4.6 mph - N/A   Overcast
10:15 PM 39.4 °F 34.5 °F 36.0 °F 88% 30.39 in 10.0 mi NNW 6.9 mph - N/A   Overcast
10:35 PM 38.5 °F 34.1 °F 34.7 °F 86% 30.39 in 10.0 mi NW 5.8 mph - N/A   Overcast
10:55 PM 37.6 °F 34.0 °F 33.3 °F 84% 30.40 in 10.0 mi NW 4.6 mph - N/A   Scattered Clouds
11:15 PM 36.9 °F 34.3 °F 32.9 °F 86% 30.40 in 10.0 mi WNW 3.5 mph - N/A   Clear
11:35 PM 36.3 °F 33.7 °F 32.5 °F 86% 30.41 in 10.0 mi NW 3.5 mph - N/A   Clear
11:55 PM 35.8 °F - 32.4 °F 87% 30.41 in 10.0 mi Calm Calm - N/A   Clear